Regional Weather Roundup
Issued by NWS

Home | Current Version | Previous Version | Text Only | Print | Product List | Glossary Off
Versions: 1 2 3 4 5 6 7 8 9 10 11 12 13 14 15 16 17 18 19 20 21 22 23 24 25 26 27 28 29 30 31 32 33 34 35 36 37 38 39 40 41 42 43 44 45 46 47 48 49 50

000
ASUS43 KOAX 030410
RWRNE

WEATHER ROUNDUP FOR NEBRASKA
NATIONAL WEATHER SERVICE OMAHA NE
1100 PM CDT THU JUL 02 2015

NOTES: SATELLITE DATA IS BEING USED TO AUGMENT CLOUD COVER ABOVE
       12000 FEET.
       "FAIR" INDICATES FEW OR NO CLOUDS BELOW 12,000 FEET WITH NO
       SIGNIFICANT WEATHER AND/OR OBSTRUCTIONS TO VISIBILITY.

  * THESE STATIONS DO NOT REPORT WEATHER SUCH AS RAIN...SNOW OR FOG.

NEZ001>004-019>022-054>056-030500-
NEBRASKA PANHANDLE

CITY           SKY/WX    TMP DP  RH WIND       PRES   REMARKS
SCOTTSBLUFF    CLOUDY    70  61  73 NE7       30.13R
ALLIANCE       CLEAR     63  60  90 CALM      30.12R
CHADRON        PTCLDY    66  61  84 CALM      30.10R
KIMBALL          N/A    N/A N/A N/A MISG        N/A
SIDNEY         MOCLDY    67  60  78 E3        30.15R
$$

NEZ057>060-069>072-079>082-030500-
SOUTHWEST NEBRASKA

CITY           SKY/WX    TMP DP  RH WIND       PRES   REMARKS
NORTH PLATTE   CLEAR     66  58  75 N3        30.05R
IMPERIAL       CLEAR     66  59  78 NE7       30.08R
LEXINGTON      CLEAR     67  63  85 NE5       30.03R
MCCOOK         CLEAR     71  61  70 N6        30.03R
OGALLALA       CLEAR     66  61  84 CALM      30.09R
$$

NEZ005>010-023>029-035>040-094-030500-
NORTH CENTRAL NEBRASKA

CITY           SKY/WX    TMP DP  RH WIND       PRES   REMARKS
VALENTINE      CLEAR     66  60  81 CALM      30.04R
AINSWORTH      CLEAR     65  63  93 CALM      30.04R
BROKEN BOW     CLEAR     66  62  87 CALM      30.03R
O`NEILL        MOCLDY    65  64  95 CALM      30.02R
ORD            MOCLDY    64  62  93 E5        30.00S
THEDFORD       CLEAR     68  61  77 CALM      30.07R
$$

NEZ041-046>049-061>064-073>077-083>087-030500-
SOUTH CENTRAL NEBRASKA

CITY           SKY/WX    TMP DP  RH WIND       PRES   REMARKS
GRAND ISLAND   CLOUDY    66  63  90 N10       30.00R
AURORA         CLOUDY    67  67  99 NE9       29.99R
HASTINGS       CLEAR     67  64  90 N7        29.99R
HEBRON         CLOUDY    70  67  90 CALM      29.95R
HOLDREGE       CLEAR     67  63  89 NE5       30.02R
KEARNEY *      CLEAR     66  61  82 NE8       30.01R
YORK           CLOUDY    66  66 100 NE8       29.98R FOG
$$

NEZ011>018-030>034-042>045-030500-
NORTHEAST NEBRASKA

CITY           SKY/WX    TMP DP  RH WIND       PRES   REMARKS
NORFOLK        MOCLDY    64  62  93 N6        30.00R FOG
ALBION         CLOUDY    65  61  87 E5        30.01R FOG
BLAIR          PTCLDY    63  59  87 NE5       29.97R
COLUMBUS *     PTCLDY    63  57  82 CALM      29.98R
FREMONT        MOCLDY    66  63  88 E5        29.98S
TEKAMAH        PTCLDY    63  58  83 NE6       29.98R
WAYNE          CLOUDY    63  62  97 CALM      30.01R FOG
$$

NEZ050>053-065>068-078-088>093-030500-
SOUTHEAST NEBRASKA

CITY           SKY/WX    TMP DP  RH WIND       PRES   REMARKS
LINCOLN        CLOUDY    69  65  86 E9        29.97R
OMAHA EPPLEY   MOCLDY    65  59  81 E5        29.97R
BEATRICE       MOCLDY    69  66  91 SE6       29.95R
FALLS CITY     CLOUDY    68  65  90 E7        29.95R
NEBRASKA CITY  CLOUDY    67  64  90 E5        29.97R
PLATTSMOUTH    CLOUDY    66  60  80 E7        29.97R
$$

NEZ044-045-051>053-067-030500-
OMAHA AREA

CITY           SKY/WX    TMP DP  RH WIND       PRES   REMARKS
OMAHA EPPLEY   MOCLDY    65  59  81 E5        29.97R
BLAIR          PTCLDY    63  59  87 NE5       29.97R
FREMONT        MOCLDY    66  63  88 E5        29.98S
MILLARD        PTCLDY    67  62  82 E5        29.96R
OFFUTT AFB     MOCLDY    66  61  84 E6        29.96R
PLATTSMOUTH    CLOUDY    66  60  80 E7        29.97R
WAHOO          CLOUDY    67  64  91 NE6       29.97R
$$


USA.gov is the U.S. government's official web portal to all federal, state and local government web resources and services.